| time (UTC) | temp F | wind direction | speed MPH | gust MPH | rain 1hr in | rain 24hr in | rain mn in | humidity % | barometer mb |
| 20260504150109 | 68 | 275 | 6.0 | 18.0 | 0.00 | 0.02 | 0.00 | 58 | 1007.8 |
| 20260504081555 | 59 | 258 | 0.0 | 2.0 | 0.00 | 0.02 | 0.00 | 82 | 1008.9 |
| 20260504080116 | 58 | 0 | 0.0 | 2.0 | 0.00 | 0.02 | 0.00 | 82 | 1009.0 |
| 20260504044553 | 60 | 0 | 0.0 | 4.0 | 0.01 | 0.01 | 0.01 | 74 | 1008.9 |
| 20260504043111 | 62 | 306 | 0.0 | 3.0 | 0.01 | 0.01 | 0.01 | 70 | 1008.4 |
| 20260504041553 | 65 | 0 | 2.0 | 10.0 | 0.00 | 0.00 | 0.00 | 62 | 1009.7 |
| 20260504040116 | 66 | 291 | 0.0 | 8.0 | 0.00 | 0.00 | 0.00 | 56 | 1009.3 |
| 20260504034559 | 66 | 296 | 1.0 | 5.0 | 0.00 | 0.00 | 0.00 | 55 | 1009.6 |
| 20260504033056 | 67 | 311 | 1.0 | 8.0 | 0.00 | 0.00 | 0.00 | 52 | 1009.8 |
| 20260504031556 | 67 | 319 | 2.0 | 7.0 | 0.00 | 0.00 | 0.00 | 52 | 1010.0 |
| 20260504030054 | 67 | 0 | 1.0 | 5.0 | 0.00 | 0.00 | 0.00 | 52 | 1010.0 |
| 20260504024551 | 68 | 0 | 0.0 | 7.0 | 0.00 | 0.00 | 0.00 | 50 | 1010.0 |
| 20260504023059 | 68 | 292 | 0.0 | 3.0 | 0.00 | 0.00 | 0.00 | 50 | 1010.1 |
| 20260504021555 | 69 | 291 | 1.0 | 4.0 | 0.00 | 0.00 | 0.00 | 48 | 1009.9 |
| 20260504020053 | 70 | 0 | 1.0 | 6.0 | 0.00 | 0.00 | 0.00 | 47 | 1009.8 |
| 20260504014604 | 70 | 256 | 2.0 | 10.0 | 0.00 | 0.00 | 0.00 | 46 | 1009.5 |
| 20260504013101 | 70 | 333 | 0.0 | 8.0 | 0.00 | 0.00 | 0.00 | 45 | 1009.4 |
| 20260504011557 | 71 | 306 | 1.0 | 9.0 | 0.00 | 0.00 | 0.00 | 45 | 1009.3 |
| 20260504010057 | 73 | 0 | 1.0 | 11.0 | 0.00 | 0.00 | 0.00 | 42 | 1009.3 |
| 20260504004554 | 73 | 308 | 3.0 | 8.0 | 0.00 | 0.00 | 0.00 | 40 | 1009.2 |
| 20260504003101 | 73 | 316 | 3.0 | 9.0 | 0.00 | 0.00 | 0.00 | 40 | 1009.3 |
| 20260504001609 | 74 | 355 | 4.0 | 9.0 | 0.00 | 0.00 | 0.00 | 39 | 1009.3 |
| 20260504000129 | 75 | 306 | 4.0 | 10.0 | 0.00 | 0.00 | 0.00 | 37 | 1009.3 |
| 20260503234552 | 75 | 303 | 5.0 | 11.0 | 0.00 | 0.00 | 0.00 | 36 | 1009.3 |
| 20260503233054 | 76 | 329 | 6.0 | 12.0 | 0.00 | 0.00 | 0.00 | 35 | 1009.6 |
| 20260503231550 | 76 | 355 | 8.0 | 15.0 | 0.00 | 0.00 | 0.00 | 35 | 1009.7 |
| 20260503230050 | 76 | 294 | 5.0 | 17.0 | 0.00 | 0.00 | 0.00 | 35 | 1009.7 |
| 20260503224549 | 76 | 324 | 5.0 | 13.0 | 0.00 | 0.00 | 0.00 | 37 | 1009.7 |
| 20260503223050 | 75 | 340 | 5.0 | 14.0 | 0.00 | 0.00 | 0.00 | 37 | 1010.0 |
| 20260503221557 | 75 | 321 | 5.0 | 11.0 | 0.00 | 0.00 | 0.00 | 39 | 1010.1 |
| 20260503220052 | 75 | 15 | 5.0 | 11.0 | 0.00 | 0.00 | 0.00 | 39 | 1010.2 |
| 20260503214552 | 74 | 319 | 7.0 | 19.0 | 0.00 | 0.00 | 0.00 | 37 | 1010.4 |
| 20260503213048 | 74 | 300 | 3.0 | 17.0 | 0.00 | 0.00 | 0.00 | 41 | 1010.5 |
| 20260503211552 | 73 | 338 | 5.0 | 20.0 | 0.00 | 0.00 | 0.00 | 39 | 1010.7 |
| 20260503210051 | 73 | 296 | 5.0 | 18.0 | 0.00 | 0.00 | 0.00 | 40 | 1010.6 |
| 20260503204550 | 73 | 175 | 5.0 | 15.0 | 0.00 | 0.00 | 0.00 | 41 | 1010.9 |
| 20260503203049 | 72 | 315 | 5.0 | 19.0 | 0.00 | 0.00 | 0.00 | 42 | 1011.5 |
| 20260503201551 | 71 | 263 | 3.0 | 19.0 | 0.00 | 0.00 | 0.00 | 44 | 1011.9 |
| 20260503200058 | 71 | 317 | 5.0 | 18.0 | 0.00 | 0.00 | 0.00 | 42 | 1012.2 |
| 20260503194553 | 70 | 306 | 7.0 | 14.0 | 0.00 | 0.00 | 0.00 | 39 | 1012.7 |
| 20260503193057 | 70 | 304 | 6.0 | 20.0 | 0.00 | 0.00 | 0.00 | 43 | 1013.0 |
| 20260503191603 | 69 | 329 | 7.0 | 22.0 | 0.00 | 0.00 | 0.00 | 43 | 1013.4 |
| 20260503190053 | 68 | 345 | 9.0 | 18.0 | 0.00 | 0.00 | 0.00 | 42 | 1013.7 |
| 20260503184551 | 67 | 313 | 4.0 | 19.0 | 0.00 | 0.00 | 0.00 | 46 | 1014.2 |
| 20260503183108 | 67 | 294 | 6.0 | 20.0 | 0.00 | 0.00 | 0.00 | 50 | 1014.6 |
| 20260503181618 | 66 | 317 | 5.0 | 19.0 | 0.00 | 0.00 | 0.00 | 47 | 1015.1 |
| 20260503180107 | 66 | 28 | 6.0 | 19.0 | 0.00 | 0.00 | 0.00 | 43 | 1015.7 |
| 20260503174556 | 65 | 317 | 5.0 | 18.0 | 0.00 | 0.00 | 0.00 | 48 | 1016.0 |
| 20260503173057 | 65 | 318 | 7.0 | 17.0 | 0.00 | 0.00 | 0.00 | 49 | 1016.3 |
| 20260503171602 | 64 | 355 | 6.0 | 16.0 | 0.00 | 0.00 | 0.00 | 49 | 1016.4 |